Le Mars, IA

8:06 PM CDT on May 23, 2017 (GMT -0500)
Le Mars Municipal

Weather History for KLRJ - March, 2014

Change the Weather History Date:

Sunday, March 16, 2014

  Actual Average Record
Temperature  
Mean Temperature 28 °F -  
Max Temperature 37 °F 45 °F 80 °F (2012)
Min Temperature 19 °F 23 °F 12 °F (1970)
Degree Days  
Heating Degree Days 37    
Moisture  
Dew Point 13 °F    
Average Humidity 55    
Maximum Humidity 86    
Minimum Humidity 30    
Precipitation  
Precipitation 0.00 in - - ()
Sea Level Pressure  
Sea Level Pressure 30.28 in    
Wind  
Wind Speed 9 mph (ENE)    
Max Wind Speed 18 mph    
Max Gust Speed 21 mph    
Visibility 10 miles    
Events      
Averages and records for this station are not official NWS values.
T = Trace of Precipitation, MM = Missing Value Source: NWS Daily Summary

Daily Weather History Graph

Daily Weather History Graph

Search for Another Location

Airport or City:

Trip Planner

Search our weather history database for the weather conditions in past years. The results will help you decide how hot, cold, wet, or windy it might be!

Date:

Astronomy

Mar. 16, 2014 Rise Set
Actual Time 7:34 AM CDT 7:32 PM CDT
Civil Twilight 7:06 AM CDT 8:00 PM CDT
Nautical Twilight 6:33 AM CDT 8:33 PM CDT
Astronomical Twilight 6:00 AM CDT 9:07 PM CDT
Moon 7:52 PM CDT (3/16) 7:18 AM CDT (3/16)
Length of Visible Light 12h 53m
Length of Day
11h 57m
Full, 100% of the Moon is Illuminated
Mar 16
Full
Mar 16
Full
Mar 23
Last Quarter
Mar 30
New
Apr 7
First Quarter

Hourly Weather History & Observations

Time (CDT) Temp. Windchill Dew Point Humidity Pressure Visibility Wind Dir Wind Speed Gust Speed Precip Events Conditions
12:15 AM 28.4 °F 16.6 °F 19.4 °F 69% 30.35 in 10.0 mi NNE 16.1 mph - N/A   Overcast
12:35 AM 28.4 °F 18.0 °F 19.4 °F 69% 30.35 in 10.0 mi NE 12.7 mph - N/A   Overcast
1:15 AM 26.6 °F 19.1 °F 19.4 °F 74% 30.36 in 10.0 mi North 6.9 mph - N/A   Mostly Cloudy
1:35 AM 26.6 °F 17.5 °F 21.2 °F 80% 30.36 in 10.0 mi NNE 9.2 mph - N/A   Partly Cloudy
1:55 AM 26.6 °F 19.1 °F 19.4 °F 74% 30.37 in 10.0 mi NNE 6.9 mph - N/A   Partly Cloudy
2:15 AM 26.6 °F 19.1 °F 19.4 °F 74% 30.38 in 10.0 mi NNE 6.9 mph - N/A   Partly Cloudy
2:35 AM 26.6 °F 16.2 °F 19.4 °F 74% 30.38 in 10.0 mi NNE 11.5 mph - N/A   Partly Cloudy
2:55 AM 24.8 °F 15.3 °F 19.4 °F 80% 30.38 in 10.0 mi NNE 9.2 mph - N/A   Mostly Cloudy
3:15 AM 24.8 °F 15.3 °F 17.6 °F 74% 30.38 in 10.0 mi NNE 9.2 mph - N/A   Partly Cloudy
3:35 AM 24.8 °F 15.3 °F 17.6 °F 74% 30.38 in 10.0 mi NNE 9.2 mph - N/A   Clear
3:55 AM 24.8 °F 15.3 °F 17.6 °F 74% 30.38 in 10.0 mi NNE 9.2 mph - N/A   Clear
4:15 AM 24.8 °F 16.1 °F 15.8 °F 69% 30.38 in 10.0 mi NE 8.1 mph - N/A   Clear
4:35 AM 23.0 °F 14.7 °F 15.8 °F 74% 30.38 in 10.0 mi NNE 6.9 mph - N/A   Clear
4:55 AM 23.0 °F 14.7 °F 15.8 °F 74% 30.38 in 10.0 mi North 6.9 mph - N/A   Clear
5:15 AM 23.0 °F 13.9 °F 15.8 °F 74% 30.38 in 10.0 mi NNE 8.1 mph - N/A   Clear
5:35 AM 21.2 °F 13.6 °F 15.8 °F 80% 30.38 in 10.0 mi NNE 5.8 mph - N/A   Clear
5:55 AM 21.2 °F 14.9 °F 15.8 °F 80% 30.38 in 10.0 mi NNE 4.6 mph - N/A   Clear
6:15 AM 21.2 °F 14.9 °F 15.8 °F 80% 30.38 in 10.0 mi North 4.6 mph - N/A   Clear
6:35 AM 21.2 °F 14.9 °F 15.8 °F 80% 30.38 in 10.0 mi NE 4.6 mph - N/A   Clear
6:55 AM 21.2 °F 14.9 °F 15.8 °F 80% 30.37 in 10.0 mi NNE 4.6 mph - N/A   Clear
7:15 AM 19.4 °F 12.8 °F 15.8 °F 86% 30.38 in 10.0 mi North 4.6 mph - N/A   Clear
7:35 AM 19.4 °F 10.4 °F 14.0 °F 80% 30.38 in 10.0 mi North 6.9 mph - N/A   Clear
7:55 AM 19.4 °F 10.4 °F 14.0 °F 80% 30.39 in 10.0 mi North 6.9 mph - N/A   Clear
8:15 AM 21.2 °F 12.6 °F 14.0 °F 74% 30.40 in 10.0 mi NNE 6.9 mph - N/A   Clear
8:35 AM 21.2 °F 10.9 °F 15.8 °F 80% 30.41 in 10.0 mi North 9.2 mph - N/A   Clear
8:55 AM 23.0 °F 13.1 °F 14.0 °F 68% 30.42 in 10.0 mi NNE 9.2 mph - N/A   Clear
9:15 AM 23.0 °F 13.1 °F 14.0 °F 68% 30.43 in 10.0 mi NNE 9.2 mph - N/A   Clear
9:35 AM 24.8 °F 15.3 °F 14.0 °F 64% 30.42 in 10.0 mi NE 9.2 mph - N/A   Clear
9:55 AM 24.8 °F 15.3 °F 14.0 °F 64% 30.41 in 10.0 mi NE 9.2 mph - N/A   Clear
10:15 AM 26.6 °F 18.2 °F 14.0 °F 59% 30.41 in 10.0 mi NE 8.1 mph - N/A   Clear
10:35 AM 26.6 °F 19.1 °F 12.2 °F 55% 30.40 in 10.0 mi NE 6.9 mph - N/A   Clear
10:55 AM 28.4 °F 22.2 °F 12.2 °F 51% 30.40 in 10.0 mi ENE 5.8 mph 12.7 mph N/A   Clear
11:15 AM 28.4 °F 21.2 °F 10.4 °F 47% 30.39 in 10.0 mi NNE 6.9 mph - N/A   Clear
11:35 AM 30.2 °F 22.6 °F 10.4 °F 44% 30.38 in 10.0 mi East 8.1 mph - N/A   Clear
11:55 AM 30.2 °F 25.4 °F 8.6 °F 40% 30.38 in 10.0 mi Variable 4.6 mph - N/A   Clear
12:15 PM 30.2 °F 23.4 °F 8.6 °F 40% 30.36 in 10.0 mi East 6.9 mph 13.8 mph N/A   Clear
12:35 PM 30.2 °F - 8.6 °F 40% 30.35 in 10.0 mi Calm Calm - N/A   Clear
12:55 PM 30.2 °F 25.4 °F 6.8 °F 37% 30.34 in 10.0 mi Variable 4.6 mph 12.7 mph N/A   Clear
1:15 PM 32.0 °F 27.5 °F 6.8 °F 35% 30.34 in 10.0 mi Variable 4.6 mph - N/A   Clear
1:55 PM 32.0 °F 27.5 °F 6.8 °F 35% 30.29 in 10.0 mi Variable 4.6 mph - N/A   Clear
2:15 PM 33.8 °F 27.7 °F 6.8 °F 32% 30.28 in 10.0 mi Variable 6.9 mph - N/A   Clear
2:35 PM 33.8 °F 28.6 °F 6.8 °F 32% 30.27 in 10.0 mi Variable 5.8 mph - N/A   Clear
2:55 PM 33.8 °F 30.8 °F 6.8 °F 32% 30.27 in 10.0 mi ESE 3.5 mph - N/A   Clear
3:15 PM 35.6 °F 31.7 °F 6.8 °F 30% 30.26 in 10.0 mi Variable 4.6 mph - N/A   Clear
3:35 PM 33.8 °F - 5.0 °F 30% 30.24 in 10.0 mi Calm Calm - N/A   Clear
3:55 PM 35.6 °F 30.7 °F 6.8 °F 30% 30.23 in 10.0 mi ESE 5.8 mph - N/A   Clear
4:15 PM 35.6 °F - 6.8 °F 30% 30.22 in 10.0 mi Calm Calm - N/A   Clear
4:35 PM 35.6 °F 30.7 °F 6.8 °F 30% 30.21 in 10.0 mi SSW 5.8 mph - N/A   Clear
4:55 PM 37.4 °F 32.1 °F 8.6 °F 30% 30.19 in 10.0 mi SW 6.9 mph - N/A   Clear
5:15 PM 37.4 °F - 8.6 °F 30% 30.18 in 10.0 mi Calm Calm 11.5 mph N/A   Clear
5:35 PM 37.4 °F 32.8 °F 8.6 °F 30% 30.18 in 10.0 mi South 5.8 mph - N/A   Clear
5:55 PM 37.4 °F 32.1 °F 8.6 °F 30% 30.16 in 10.0 mi SSE 6.9 mph - N/A   Clear
6:15 PM 37.4 °F 32.8 °F 8.6 °F 30% 30.15 in 10.0 mi SSE 5.8 mph 12.7 mph N/A   Clear
6:35 PM 37.4 °F 31.4 °F 8.6 °F 30% 30.17 in 10.0 mi South 8.1 mph - N/A   Clear
6:55 PM 35.6 °F 29.2 °F 10.4 °F 35% 30.14 in 10.0 mi SSE 8.1 mph - N/A   Clear
7:15 PM 35.6 °F 29.2 °F 10.4 °F 35% 30.12 in 10.0 mi SSE 8.1 mph - N/A   Clear
7:35 PM 32.0 °F 27.5 °F 12.2 °F 44% 30.12 in 10.0 mi SSE 4.6 mph - N/A   Clear
7:55 PM 32.0 °F 24.8 °F 12.2 °F 44% 30.12 in 10.0 mi SE 8.1 mph - N/A   Clear
8:15 PM 30.2 °F 22.6 °F 12.2 °F 47% 30.10 in 10.0 mi SE 8.1 mph - N/A   Clear
8:35 PM 30.2 °F 22.6 °F 12.2 °F 47% 30.10 in 10.0 mi SE 8.1 mph - N/A   Clear
8:55 PM 30.2 °F 21.3 °F 12.2 °F 47% 30.09 in 10.0 mi SE 10.4 mph - N/A   Clear
9:15 PM 28.4 °F 19.1 °F 12.2 °F 51% 30.08 in 10.0 mi SE 10.4 mph - N/A   Clear
9:35 PM 28.4 °F 19.1 °F 12.2 °F 51% 30.07 in 10.0 mi SSE 10.4 mph - N/A   Clear
9:55 PM 28.4 °F 18.0 °F 10.4 °F 47% 30.06 in 10.0 mi SSE 12.7 mph - N/A   Clear
10:15 PM 28.4 °F 17.5 °F 10.4 °F 47% 30.04 in 10.0 mi SSE 13.8 mph 19.6 mph N/A   Clear
10:35 PM 28.4 °F 17.5 °F 12.2 °F 51% 30.03 in 10.0 mi SSE 13.8 mph - N/A   Clear
10:55 PM 28.4 °F 15.8 °F 12.2 °F 51% 30.01 in 10.0 mi SSE 18.4 mph - N/A   Scattered Clouds
11:15 PM 28.4 °F 17.5 °F 12.2 °F 51% 30.02 in 10.0 mi SSE 13.8 mph 20.7 mph N/A   Mostly Cloudy
11:35 PM 28.4 °F 17.0 °F 14.0 °F 55% 30.02 in 10.0 mi SSE 15.0 mph - N/A   Mostly Cloudy
11:55 PM 30.2 °F 18.9 °F 15.8 °F 55% 30.00 in 10.0 mi South 16.1 mph - N/A   Mostly Cloudy